Regional Weather Roundup
Issued by NWS

Home | Current Version | Previous Version | Text Only | Print | Product List | Glossary On
Versions: 1 2 3 4 5 6 7 8 9 10 11 12 13 14 15 16 17 18 19 20 21 22 23 24 25 26 27 28 29 30 31 32 33 34 35 36 37 38 39 40 41 42 43 44 45 46 47 48 49 50
000
ASUS44 KJAN 301810
RWRMS

MISSISSIPPI HOURLY WEATHER ROUNDUP
NATIONAL WEATHER SERVICE JACKSON MS
100 PM CDT MON MAY 30 2016

NOTE: "FAIR: INDICATES FEW OR NO CLOUDS BELOW 12,000 FEET WITH NO
SIGNIFICANT WEATHER AND/OR OBSTRUCTIONS TO VISIBILITY.

MSZ001>002-007>008-010>013-018>021-025>028-034>036-301900-
NORTHWEST MISSISSIPPI

CITY           SKY/WX    TMP DP  RH WIND       PRES   REMARKS
BATESVILLE     FAIR      88  65  45 CALM      30.03F
CLARKSDALE     MOSUNNY   86  68  54 CALM      30.03F
CLEVELAND      FAIR      87  67  50 CALM      30.02F
GREENWOOD      SUNNY     90  62  39 CALM      30.02F HX  90
6HR MIN TEMP:  68; 6HR MAX TEMP:  90;

GREENVILLE     MOSUNNY   89  66  46 CALM      30.02F HX  91
OLIVE BRANCH   MOSUNNY   86  64  48 VRB5      30.03F
OXFORD         FAIR      86  63  45 N3        30.05F
TUNICA         CLEAR     84  64  51 CALM      30.03F
WINONA         FAIR      87  64  46 CALM      30.03S
$$

MSZ003>006-009-014>017-022>024-029>033-037>039-301900-
NORTHEAST MISSISSIPPI

CITY           SKY/WX    TMP DP  RH WIND       PRES   REMARKS
COLUMBUS AFB   MOSUNNY   89  66  46 NW8       30.01F HX  91
6HR MIN TEMP:  71; 6HR MAX TEMP:  89;

CORINTH        FAIR      86  63  45 N6        30.03F
GOLDN TRIANGLE MOSUNNY   91  64  40 NW9       30.02F HX  93
STARKVILLE     FAIR      90  63  40 N6        30.01F HX  90
TUPELO         PTSUNNY   88  62  41 VRB5      30.02F
6HR MIN TEMP:  72; 6HR MAX TEMP:  89;

$$

MSZ040-058-301900-
CENTRAL MISSISSIPPI

CITY           SKY/WX    TMP DP  RH WIND       PRES   REMARKS
JACKSON INTL   MOSUNNY   91  62  37 N5        30.02F HX  91
6HR MIN TEMP:  70; 6HR MAX TEMP:  92;

JACKSON HAWKNS SUNNY     90  64  42 VRB7      30.02F HX  91
6HR MIN TEMP:  69; 6HR MAX TEMP:  91;

MADISON        FAIR      88  66  48 SE5       30.02F HX  90
MERIDIAN KEY   MOSUNNY   94  62  34 NW6       30.02F HX  94
6HR MIN TEMP:  71; 6HR MAX TEMP:  94;

MERIDIAN NAS   MOSUNNY   91  63  39 N7        30.02F HX  92
6HR MIN TEMP:  70; 6HR MAX TEMP:  93;

VICKSBURG TVR  SUNNY     90  68  48 E5        30.02F HX  94
6HR MIN TEMP:  71; 6HR MAX TEMP:  91;

VICKSBURG VKS  CLEAR     88  68  51 CALM      30.02F HX  91
$$

MSZ059>079-301900-
SOUTH MISSISSIPPI

CITY           SKY/WX    TMP DP  RH WIND       PRES   REMARKS
BROOKHAVEN     FAIR     N/A N/A N/A N5        30.03F
COLUMBIA       FAIR      90  66  45 VRB5      30.04F HX  92
HATTIESBURG    SUNNY     91  65  41 CALM      30.01F HX  93
6HR MIN TEMP:  71; 6HR MAX TEMP:  92;

MCCOMB         MOSUNNY   88  64  44 SE7       30.01F
6HR MIN TEMP:  70; 6HR MAX TEMP:  91;

NATCHEZ        MOSUNNY   88  70  55 N5        30.01F HX  92
6HR MIN TEMP:  66; 6HR MAX TEMP:  88;

PINE BELT      SUNNY     90  64  43 E5        30.03F HX  91
6HR MIN TEMP:  72; 6HR MAX TEMP:  91;

$$

MSZ080>082-301900-
COASTAL MISSISSIPPI

CITY           SKY/WX    TMP DP  RH WIND       PRES   REMARKS
BAY ST LOUIS   MOSUNNY   88  61  40 SE7       30.00F
BILOXI         SUNNY     91  69  47 S8        30.00F HX  95
6HR MIN TEMP:  76; 6HR MAX TEMP:  91;

PASCAGOULA     MOSUNNY   90  69  50 VRB3      30.00F HX  94
6HR MIN TEMP:  72; 6HR MAX TEMP:  92;

GULFPORT       SUNNY     91  67  44 S8        29.99F HX  94
6HR MIN TEMP:  74; 6HR MAX TEMP:  92;

$$




USA.gov is the U.S. government's official web portal to all federal, state and local government web resources and services.